STARLINK-34057

Last updated on Wed Jun 04 2025 00:02:04 GMT+0000 (Coordinated Universal Time)

1 63814U 25092L 25153.78706034 -.00003676 00000+0 -56861-4 0 9994 2 63814 43.0047 315.3220 0002777 254.6101 105.4452 15.50569637 5788
UTC large
Height (km)
Speed (km/s)
/
Latitude / Longitude
Inclination (degrees)
Orbital Period (minutes)
Azimuth
Elevation
Range (km)
Doppler Factor

Next 0 passes for location: London (51.5072 / 0.1276)

Sorry there are no passes over London.